Location: Milton Keynes
(52.0316°N, 0.7531°W)
Time: 23:46:01
(UTC+00:00)

N. Korean satellite - Visible Passes

Search period start: 23 January 2019 00:00
Search period end: 02 February 2019 00:00
Orbit: 458 x 509 km, 97.2° (Epoch: 22 January)

Date Brightness Start Highest point End Pass type
(mag) Time Alt. Az. Time Alt. Az. Time Alt. Az.
23 Jan 10.0 05:14:02 10° ENE 05:15:58 14° E 05:17:53 10° ESE visible
23 Jan 6.6 06:46:08 10° N 06:49:50 63° WNW 06:53:28 10° SSW visible
23 Jan 7.0 17:26:49 10° S 17:30:30 72° WSW 17:34:15 10° NNW visible
24 Jan 7.0 06:21:26 10° NNE 06:25:10 69° ESE 06:28:49 10° S visible
24 Jan 10.0 18:37:36 10° WSW 18:39:40 14° W 18:41:46 10° NW visible
25 Jan 8.3 05:56:56 10° NNE 06:00:25 37° E 06:03:50 10° SSE visible
25 Jan 9.2 18:11:42 10° SSW 18:14:47 24° W 18:17:54 10° NW visible
26 Jan 9.4 05:32:43 10° NE 05:35:35 21° E 05:38:24 10° SE visible
26 Jan 7.1 07:05:42 10° N 07:09:11 39° WNW 07:12:35 10° SW visible
26 Jan 8.0 17:46:25 10° S 17:49:58 43° W 17:53:35 10° NNW visible
27 Jan 10.2 05:09:10 10° ENE 05:10:38 12° E 05:12:06 10° ESE visible
27 Jan 6.5 06:40:53 10° N 06:44:35 72° WNW 06:48:12 10° SSW visible
27 Jan 6.8 17:21:31 10° SSE 17:25:14 82° WSW 17:29:01 10° NNW visible
28 Jan 7.2 06:16:13 10° NNE 06:19:54 60° E 06:23:29 10° S visible
28 Jan 10.0 18:31:59 10° SW 18:34:22 16° W 18:36:44 10° NW visible
29 Jan 8.5 05:51:45 10° NNE 05:55:07 32° E 05:58:24 10° SSE visible
29 Jan 9.1 18:06:15 10° SSW 18:09:29 27° W 18:12:44 10° NW visible
30 Jan 9.6 05:27:36 10° NE 05:30:15 18° E 05:32:50 10° SE visible
30 Jan 6.9 07:00:24 10° N 07:03:55 43° WNW 07:07:21 10° SW visible
30 Jan 7.8 17:41:03 10° S 17:44:40 49° W 17:48:20 10° NNW visible
31 Jan 10.3 05:04:36 10° ENE 05:05:17 10° E 05:05:58 10° E visible
31 Jan 6.5 06:35:36 10° NNE 06:39:17 81° WNW 06:42:53 10° SSW visible
31 Jan 10.5 18:53:34 10° W 18:53:58 10° W 18:54:24 10° W visible
01 Feb 7.5 06:10:58 10° NNE 06:14:34 53° E 06:18:05 10° S visible
01 Feb 9.9 18:26:24 10° SW 18:29:00 18° W 18:31:38 10° NW visible
